Theta_e
278 278 277 277 276 276 275 275 275 274 276 275 271 272 274 274 270 268 273 275 273 275 277 278 278 279 278 279 279 280 281 282 282 280 279 279 280 280 279 278 278 277 276 275 275 274 273 272 271 271 271 271 271 271 271 272 273 273 274 274 275 275 276 276 276 276 276 278 280 282 286 290 292 292 293 293 293 292 290 289 288 288 289 291 291 298 304
275 276 276 277 276 275 275 275 276 276 276 275 275 274 275 275 273 274 275 274 274 277 277 278 279 280 280 280 281 281 281 280 280 279 279 279 279 278 277 277 276 276 276 275 275 273 272 271 270 269 269 269 269 270 270 271 272 273 274 274 274 274 274 275 276 277 277 276 277 279 282 284 287 289 291 292 291 290 290 289 288 287 288 290 292 297 304
273 276 277 276 276 275 273 275 275 275 275 275 275 275 275 275 274 275 275 274 273 278 280 279 281 281 281 281 280 280 280 279 279 278 278 279 278 276 276 276 275 275 274 273 273 272 271 270 269 269 269 269 269 269 270 270 271 272 273 273 274 274 274 275 276 276 276 276 276 276 279 281 284 285 287 289 290 289 289 289 288 287 288 289 291 297 304
271 275 274 274 275 274 273 272 273 274 274 272 274 273 276 274 272 274 273 271 272 278 280 280 280 280 279 279 279 279 278 278 278 278 278 277 276 275 275 274 274 273 273 273 271 271 270 270 269 268 268 268 268 268 269 270 271 272 272 272 273 274 275 275 276 276 276 276 276 276 278 279 281 283 285 286 288 288 288 288 288 288 288 289 292 298 304
270 273 273 272 272 271 268 270 273 275 275 276 276 276 276 276 276 272 270 271 277 278 279 277 278 279 279 279 278 278 278 278 278 278 277 276 275 274 274 274 274 272 272 271 271 270 270 269 268 268 268 267 267 268 268 270 271 271 271 272 272 273 274 275 275 276 276 276 276 276 277 278 281 282 283 285 286 287 287 288 289 288 288 289 292 297 302
269 271 271 272 269 263 266 277 279 277 274 275 273 274 275 277 277 275 277 277 278 278 278 277 277 277 278 278 279 279 278 278 278 277 276 275 275 274 274 274 273 272 271 271 271 270 269 269 269 268 268 268 268 269 269 269 269 270 270 271 272 272 274 275 275 276 276 276 276 276 277 278 280 281 282 284 286 287 288 288 288 289 288 289 291 295 300
269 270 270 267 263 265 276 277 279 278 277 277 276 276 277 277 277 277 276 277 277 278 278 279 279 279 279 279 278 278 279 280 278 276 275 274 274 273 273 273 272 273 272 271 270 269 269 269 268 268 268 268 268 268 269 268 269 269 269 270 271 272 273 274 275 276 276 276 276 276 277 278 280 282 283 284 286 287 288 288 288 288 289 289 291 293 296
270 269 268 262 265 272 274 276 278 279 278 277 276 274 276 277 277 277 276 277 278 279 279 279 280 279 278 278 278 279 280 280 278 275 274 274 274 273 272 271 271 270 270 270 269 268 269 269 268 268 268 269 268 268 269 268 268 268 269 269 270 271 272 274 275 275 276 276 276 277 276 277 280 282 284 285 285 287 287 289 290 290 290 290 291 292 294
264 268 267 268 273 272 275 274 275 276 274 275 274 269 273 277 278 278 277 277 278 279 279 279 278 278 277 275 277 280 280 279 278 276 275 274 273 273 273 272 271 271 271 270 269 269 268 268 268 268 268 268 268 268 267 268 268 268 268 268 269 270 271 273 274 275 276 276 276 276 277 277 279 282 284 285 286 288 288 289 289 289 290 291 292 292 292
271 265 265 266 266 264 270 276 278 280 279 279 278 275 272 279 278 279 278 277 278 278 278 277 277 276 273 272 274 279 279 278 276 276 275 275 274 273 272 272 271 271 270 270 269 268 267 267 268 268 268 268 267 267 267 267 267 267 267 267 268 269 269 271 273 275 276 276 275 276 277 278 279 282 285 287 287 289 288 288 289 289 290 291 292 292 292
269 267 265 264 262 266 276 275 278 279 280 279 278 273 268 277 278 279 279 277 278 277 276 276 275 272 269 270 274 278 277 276 275 274 274 274 273 273 272 271 270 270 270 269 268 268 267 267 268 268 268 267 267 266 266 266 266 266 266 267 267 267 268 269 270 272 274 275 276 276 277 279 280 281 285 287 289 289 289 289 289 290 291 292 292 293 292
269 267 265 264 269 268 275 277 278 278 279 279 276 265 267 276 278 279 279 277 277 277 276 275 273 272 269 270 274 277 276 275 274 273 272 272 272 271 271 271 270 270 270 268 267 266 266 266 268 268 268 267 266 265 265 265 265 265 265 266 267 267 267 268 269 271 273 274 276 276 277 278 281 283 286 288 288 288 289 290 290 291 291 292 292 293 293
269 270 266 269 269 276 279 278 279 279 279 277 266 262 272 279 279 280 278 277 277 276 275 274 271 275 276 275 276 276 275 273 273 273 273 272 271 270 270 269 271 269 268 267 266 266 266 267 267 267 267 266 265 265 265 264 264 264 265 266 266 266 267 267 268 269 272 274 275 277 278 279 280 284 287 288 288 288 288 289 289 290 290 292 292 292 294
267 268 267 267 270 276 279 280 280 279 275 266 267 276 280 279 279 280 278 277 277 276 274 274 274 274 275 275 274 273 273 272 271 271 271 270 270 270 270 270 269 268 267 267 266 266 267 267 267 267 266 265 264 264 264 263 264 265 265 265 265 265 266 266 267 268 270 273 276 278 280 281 281 282 286 288 287 287 288 288 289 289 290 291 292 292 293
271 270 265 264 261 273 281 278 277 279 271 272 279 280 280 280 278 278 278 278 277 275 273 274 273 273 273 273 272 272 271 270 270 269 269 268 268 268 267 267 267 266 265 265 265 265 266 266 266 266 265 264 263 263 262 263 264 264 264 264 264 265 265 266 267 269 271 273 276 279 280 282 282 282 284 286 286 287 287 287 288 288 289 290 291 291 292
264 267 263 264 273 278 280 278 273 277 279 281 281 280 279 279 278 277 277 277 276 274 272 272 272 272 271 271 271 270 270 269 269 268 268 268 267 267 267 266 266 265 264 264 264 265 265 265 266 266 265 263 262 262 262 263 264 264 264 264 264 264 265 266 267 269 271 274 278 280 281 282 282 283 283 285 286 287 287 288 288 288 289 289 290 290 291
270 269 273 277 279 280 281 281 281 281 283 283 282 281 281 280 278 276 275 276 275 273 271 270 270 269 270 270 270 268 267 267 267 266 266 266 266 265 264 264 264 264 263 263 263 263 264 264 265 265 264 262 261 261 262 263 263 263 263 263 263 264 264 266 268 270 272 274 278 282 283 284 284 284 285 285 286 287 287 288 288 289 289 290 290 290 291
279 279 280 281 280 279 280 281 282 281 280 278 279 279 279 279 278 276 276 275 273 271 270 268 268 269 269 268 267 267 266 265 266 266 265 265 265 264 263 263 263 262 263 262 262 262 263 263 264 264 264 263 260 261 262 263 263 263 263 262 263 263 265 266 268 270 272 274 278 282 283 284 285 285 285 285 285 286 287 288 289 289 289 290 290 290 291
275 270 280 278 279 280 279 280 280 278 279 278 278 278 279 277 275 274 273 272 270 269 268 267 267 268 268 267 266 265 264 264 264 264 264 263 263 262 261 262 262 261 261 261 261 261 261 262 263 263 263 262 262 262 262 263 263 262 262 262 263 264 265 267 269 270 272 275 278 282 284 285 285 285 286 286 286 286 287 288 288 289 289 289 289 290 290
275 274 279 280 282 281 282 281 278 278 277 277 277 277 276 275 273 271 270 269 267 268 266 267 267 266 266 265 264 263 263 263 263 263 262 262 261 261 262 261 261 261 260 260 260 260 260 262 263 263 262 261 261 261 262 262 262 262 261 262 263 264 265 267 269 272 274 277 279 281 284 285 286 286 287 287 287 287 287 288 288 288 289 289 289 290 290
277 279 280 280 280 280 280 280 281 282 280 276 275 273 272 271 270 269 269 269 268 267 267 266 265 263 263 263 263 262 262 262 262 261 261 261 260 260 260 260 260 260 260 259 259 259 260 261 262 262 261 261 261 261 261 261 261 261 261 262 264 265 267 269 271 273 275 277 279 281 283 285 286 287 287 287 287 288 289 289 289 289 289 290 290 290 291
273 274 276 280 274 274 279 280 281 278 278 276 274 272 270 270 269 268 267 267 267 266 265 264 263 261 261 262 262 261 261 260 260 260 260 260 260 260 260 260 260 260 260 259 259 259 260 261 261 261 260 260 261 261 261 260 260 260 261 262 264 266 268 269 271 273 275 278 279 281 282 283 285 287 287 288 289 288 288 289 289 291 291 290 291 291 291
273 278 280 281 280 280 281 281 279 276 275 275 272 271 271 270 269 268 266 265 264 264 264 264 262 261 261 261 261 260 259 259 260 259 259 258 259 259 259 258 258 258 259 259 259 259 259 260 260 259 259 259 260 260 260 260 260 260 261 262 264 265 266 267 269 271 274 277 280 281 282 283 284 285 286 288 289 289 289 289 289 290 291 291 292 292 291
280 281 281 281 280 278 279 279 276 274 274 273 273 273 271 269 267 266 265 264 263 262 262 261 262 261 261 261 260 258 258 259 259 258 259 259 259 259 259 258 258 258 258 258 258 258 259 259 258 258 258 259 259 259 259 259 260 260 261 262 263 264 265 266 268 269 271 273 276 278 281 284 285 285 286 286 288 289 289 289 289 290 290 291 291 291 292
279 282 281 281 280 280 276 275 274 273 272 273 272 270 268 266 265 264 263 262 262 261 259 260 261 262 260 260 259 258 257 257 258 259 259 258 259 258 257 257 257 257 258 258 258 258 258 258 257 257 257 258 259 258 259 259 259 259 261 262 262 263 264 265 266 267 269 269 271 273 275 278 281 284 285 286 286 287 289 289 289 290 290 291 291 291 291
282 282 275 273 274 274 272 272 270 269 269 270 268 267 266 265 264 263 262 262 261 261 260 260 259 260 260 258 257 257 257 257 258 258 257 257 257 256 256 256 257 258 258 258 257 258 257 257 257 257 256 257 258 258 258 258 258 259 261 262 262 263 264 264 265 265 266 267 268 269 271 274 277 280 282 284 286 286 286 287 288 289 290 291 292 292 292
282 281 276 275 275 274 273 275 275 270 268 268 267 266 265 265 263 262 262 261 260 260 260 259 259 259 258 257 257 256 256 257 257 257 257 256 256 256 256 257 257 257 257 257 257 257 258 256 256 256 256 257 257 258 258 258 258 259 260 261 262 264 266 265 264 264 265 265 266 267 268 270 272 276 278 280 283 285 286 286 286 286 287 288 289 291 290
281 279 279 277 277 279 277 274 270 267 267 266 265 264 263 262 260 258 258 259 260 259 259 259 257 256 255 256 255 255 255 255 255 256 256 255 256 256 257 257 257 257 256 256 256 256 256 255 255 255 255 256 257 257 257 257 258 258 259 260 261 262 262 263 263 263 263 264 264 265 266 267 269 271 273 274 275 277 279 282 283 284 284 285 285 286 288
279 278 278 279 274 270 268 267 266 266 265 265 265 264 261 258 258 258 259 260 260 258 258 258 257 256 255 255 255 254 254 254 254 254 254 255 256 256 256 256 256 256 255 255 255 255 255 254 254 254 255 256 256 257 257 257 257 258 259 259 260 261 262 263 263 262 262 263 263 264 266 266 266 267 268 268 269 269 270 270 272 272 271 273 275 276 279
278 277 275 273 268 269 268 266 266 265 264 263 262 260 260 259 259 260 260 260 259 257 259 258 256 255 255 254 254 253 253 253 253 254 255 255 255 256 256 256 255 255 255 254 254 254 254 254 253 254 254 255 256 256 256 256 257 258 258 259 260 260 261 262 262 262 261 261 262 264 263 263 263 264 264 264 264 265 265 265 266 266 266 267 269 269 269
275 271 270 269 266 267 269 269 267 265 264 262 262 260 260 260 260 259 259 260 258 258 257 256 255 254 254 253 253 253 254 254 254 254 255 255 255 255 255 255 253 252 252 253 254 253 253 253 253 253 254 255 255 256 256 256 256 257 258 258 259 262 264 264 264 261 260 261 261 261 261 261 261 262 262 262 262 262 262 261 261 261 263 264 265 266 266
268 265 264 265 266 265 265 265 266 265 263 263 262 260 260 259 257 258 258 257 257 257 255 255 254 253 253 253 253 253 253 254 254 254 254 254 254 254 254 254 253 253 252 253 253 253 253 252 252 253 254 255 255 255 255 255 256 257 257 259 258 259 261 264 261 260 260 260 260 260 260 260 260 260 260 260 260 260 260 260 259 260 259 260 262 264 265
266 264 265 264 262 261 262 263 263 263 263 261 262 262 261 260 259 258 258 257 256 256 255 254 253 253 253 253 253 252 252 253 253 253 253 252 253 253 253 254 253 252 252 253 253 253 252 252 252 254 254 254 255 255 255 255 256 256 257 257 258 259 260 261 261 259 259 259 259 259 259 260 259 259 259 259 259 259 259 258 259 258 258 258 259 262 265
273 274 275 273 270 269 267 266 264 264 263 263 262 261 259 258 257 257 256 256 255 254 254 253 253 252 253 252 252 252 252 252 252 252 252 251 252 252 253 253 252 252 252 253 253 252 252 252 253 253 254 254 254 255 255 255 256 256 256 256 257 258 258 258 259 259 258 258 258 259 259 259 258 258 258 258 258 258 258 258 258 258 257 257 257 259 264
278 278 276 275 274 274 273 272 268 265 263 261 259 258 258 257 256 255 255 255 254 254 254 253 252 252 252 251 251 251 251 250 251 251 251 251 251 252 252 252 251 251 251 252 252 252 252 252 253 253 253 254 254 254 254 255 255 255 255 256 257 257 257 258 258 258 257 257 258 258 257 257 257 259 258 258 257 257 257 257 257 257 256 256 256 257 259
276 275 268 266 265 265 266 268 267 265 263 261 259 257 256 255 255 255 255 254 254 254 253 252 252 251 251 251 251 250 250 250 251 251 250 250 251 252 252 250 249 249 250 251 251 251 251 252 255 255 253 253 253 253 254 254 255 255 255 255 256 256 256 257 257 257 257 257 257 257 257 258 258 257 257 257 257 256 256 256 256 256 255 255 256 256 256
273 273 268 264 261 261 261 262 263 263 262 260 257 256 255 254 254 254 254 253 253 252 252 252 251 251 250 251 251 251 251 251 250 250 250 250 251 251 251 250 249 249 249 249 250 251 251 252 254 255 253 253 253 253 253 257 254 254 254 254 254 255 255 255 255 255 255 256 256 256 257 256 256 256 256 256 256 256 256 255 255 255 255 255 255 255 255
265 265 263 261 259 259 258 258 259 259 257 256 255 255 254 253 253 253 253 252 252 252 251 251 250 251 251 251 251 250 250 250 250 249 249 248 249 249 250 249 248 248 248 249 250 251 251 252 254 253 252 252 252 252 253 256 256 254 253 253 253 254 254 253 253 254 254 254 255 255 255 255 255 255 255 255 255 255 255 255 255 255 255 255 255 254 254
260 259 259 259 258 256 256 256 256 257 257 255 253 252 252 252 252 252 251 251 251 251 251 250 250 250 249 249 249 250 249 249 250 249 249 248 249 249 249 249 248 248 248 250 250 250 251 251 251 251 251 251 251 252 253 255 255 253 253 253 252 253 253 253 252 253 253 253 254 254 254 254 254 254 254 254 254 254 255 254 254 254 254 254 254 254 254
259 259 258 258 256 256 256 256 255 255 254 254 253 251 252 252 252 251 251 250 251 251 250 250 250 249 248 248 247 247 248 249 250 250 249 248 248 249 250 250 250 250 250 252 251 251 251 252 251 251 251 251 251 252 252 253 253 253 252 252 252 252 252 252 252 251 251 251 252 253 252 253 253 253 253 253 253 253 253 253 253 253 253 253 253 253 253
259 258 258 258 256 256 255 255 253 253 253 253 252 252 253 252 251 251 250 250 251 251 250 249 248 248 248 246 246 247 248 249 250 250 249 249 249 249 250 249 250 250 250 251 251 250 250 251 250 250 250 251 251 252 251 253 251 252 252 251 251 251 251 251 251 251 251 250 251 251 251 251 252 252 252 252 252 252 252 252 252 252 252 252 252 253 253
258 258 258 257 257 256 255 253 252 251 251 251 252 252 252 252 251 250 250 251 251 250 250 249 250 249 249 249 249 249 249 250 250 250 250 249 248 249 248 249 250 250 251 251 251 250 250 249 250 251 250 250 250 252 253 251 251 251 251 251 251 251 250 250 250 250 250 250 250 250 250 251 251 251 251 251 250 250 250 251 251 251 251 251 251 252 252
257 257 257 257 256 255 253 253 253 252 250 251 251 251 252 252 251 251 251 251 251 251 250 250 249 250 249 248 248 249 249 249 249 249 250 250 249 249 248 248 250 250 251 250 250 250 250 249 250 250 251 250 250 252 252 251 250 250 250 250 250 250 250 249 249 250 250 249 249 249 249 249 249 249 250 250 250 250 250 249 250 250 250 250 250 251 251
257 257 257 256 255 254 253 253 252 251 250 251 252 252 252 252 252 251 252 252 251 251 250 250 249 249 248 248 248 250 250 250 249 250 250 251 250 250 249 249 249 250 251 250 250 249 249 249 250 250 251 251 251 251 250 250 250 250 249 249 249 249 249 249 248 249 249 249 248 248 248 249 249 249 249 249 249 249 250 249 249 249 249 250 250 250 250
256 257 256 255 254 253 253 252 251 252 252 252 252 252 252 252 252 252 252 252 251 251 250 249 249 250 250 250 249 249 249 250 249 249 249 250 250 251 250 250 249 249 250 250 249 249 249 249 249 250 250 250 250 250 249 249 250 249 249 249 249 249 248 248 248 248 248 248 248 248 248 248 248 248 248 248 249 249 249 249 248 249 249 249 249 249 249
256 256 255 256 254 254 254 253 253 253 252 252 252 252 253 252 252 252 253 252 251 251 251 251 251 251 250 250 249 249 249 249 250 250 250 250 249 249 249 249 249 249 249 250 249 249 249 250 250 250 250 250 249 248 248 248 249 249 249 248 248 248 248 248 247 247 247 247 248 247 247 247 247 247 248 248 248 248 248 248 249 248 248 248 248 248 248
255 254 254 254 254 254 254 254 254 253 252 252 251 252 253 253 252 253 252 251 251 251 251 252 252 251 251 249 249 249 249 250 251 251 250 250 249 249 249 249 249 249 248 248 248 248 248 247 248 249 249 249 248 247 247 247 247 248 248 248 248 248 248 247 247 246 247 247 247 247 248 247 247 247 247 247 247 247 247 247 247 248 248 248 247 247 247
254 254 254 254 254 254 254 254 253 252 252 252 253 253 253 252 251 251 250 250 250 250 250 250 251 250 250 249 249 249 249 249 250 250 250 249 249 249 248 248 248 248 248 248 248 248 248 248 248 248 248 248 247 247 246 247 247 247 247 247 248 247 247 247 247 247 246 246 246 246 246 246 246 246 246 246 247 247 246 246 246 247 247 247 247 247 246
255 254 254 255 255 254 254 253 253 253 254 255 254 253 252 251 251 250 250 249 249 249 250 250 249 249 249 249 249 249 249 249 250 250 251 250 248 248 248 248 248 248 247 247 246 246 247 247 247 247 247 247 246 246 246 246 247 246 246 247 247 247 246 246 246 246 246 245 245 245 245 245 245 245 245 245 246 246 246 246 246 246 246 246 246 246 246
255 254 255 255 255 254 254 255 255 255 255 255 254 253 252 251 251 250 250 250 250 250 250 251 251 250 250 250 250 249 249 248 248 248 248 248 247 247 247 247 246 247 247 246 246 246 247 246 246 246 246 246 246 246 246 246 247 246 246 246 246 247 246 246 246 246 245 245 245 244 245 245 244 244 244 245 245 245 245 245 245 246 246 245 245 245 245
255 255 255 256 256 256 256 256 256 256 256 255 254 253 252 252 251 251 251 250 250 249 249 249 250 251 251 251 250 250 249 249 249 249 248 248 247 247 247 247 246 246 246 245 245 246 246 245 245 245 245 245 246 246 246 245 245 246 246 246 246 246 246 245 245 245 245 245 245 244 244 244 244 244 244 244 244 244 244 244 244 244 244 244 244 244 244
256 256 256 256 256 256 256 256 256 256 255 254 253 252 252 252 251 250 250 251 250 250 249 248 248 249 250 249 248 249 250 249 249 249 248 247 247 247 246 246 246 246 245 245 246 245 245 245 245 245 245 245 245 245 246 246 245 245 245 245 246 246 245 245 244 244 244 244 244 243 243 243 243 243 243 243 243 243 243 243 243 243 243 243 243 243 243
Wind_Speed
9 8 9 7 6 8 7 9 13 15 10 10 13 14 15 13 10 15 13 13 18 18 17 18 18 17 18 22 25 26 27 24 26 26 27 28 27 26 27 28 28 28 29 31 35 36 31 28 28 28 26 24 23 23 22 22 22 22 20 20 20 20 20 20 19 17 18 18 19 20 21 19 16 16 13 8 7 7 7 8 10 9 12 14 16 19 17
6 6 9 8 9 8 9 12 16 15 10 12 14 14 14 16 18 19 18 19 22 18 16 17 16 17 19 20 22 22 23 24 25 26 26 27 26 27 28 29 29 30 34 33 32 29 34 31 31 29 26 24 23 23 24 23 23 23 22 21 21 21 21 20 20 20 18 17 18 20 20 21 20 17 15 11 10 10 9 9 10 11 11 14 16 19 17
6 9 10 11 10 9 11 12 17 16 13 14 14 12 13 13 16 18 16 17 17 12 10 13 16 16 18 20 22 21 23 22 24 25 26 28 26 28 28 29 29 30 31 32 35 33 31 32 31 29 27 26 24 24 23 23 24 23 23 23 23 22 23 23 22 20 21 19 17 19 20 19 18 18 18 15 13 12 11 10 11 11 11 14 17 17 18
5 7 9 9 8 8 10 12 20 17 12 13 10 8 8 9 11 13 14 13 12 9 12 15 16 19 19 19 18 18 19 23 25 25 25 25 25 25 27 28 30 33 33 36 36 34 33 33 32 28 27 25 24 24 24 24 23 23 23 24 25 25 24 24 22 23 21 20 21 19 20 20 18 17 18 17 15 13 12 12 12 9 12 14 17 17 17
5 5 5 2 2 6 10 13 19 16 13 12 9 9 9 12 13 11 9 12 11 14 14 16 19 20 20 18 17 19 20 22 22 23 24 23 23 23 27 30 30 29 31 32 34 33 32 28 28 30 29 26 24 24 26 25 23 24 25 24 25 25 24 24 23 19 20 22 22 20 19 19 17 16 17 18 17 15 15 13 12 11 12 14 17 16 17
1 5 1 3 4 9 7 0 6 7 8 8 10 9 9 11 10 9 9 12 12 13 13 15 18 19 18 16 18 18 17 18 18 21 21 22 23 23 23 24 28 27 27 30 31 31 28 30 30 28 26 27 27 25 25 25 24 25 25 26 25 25 24 23 19 22 21 21 19 23 19 19 18 17 17 18 16 14 13 13 13 13 11 15 16 16 16
3 2 2 5 11 10 4 5 3 2 4 8 11 11 12 12 12 13 14 13 11 11 11 13 15 16 17 16 20 22 18 15 15 16 20 22 24 25 24 25 29 31 32 34 33 31 31 31 29 28 27 25 27 28 24 25 24 24 25 25 25 24 24 22 21 19 18 20 20 19 19 18 17 16 16 16 15 13 12 13 13 13 12 14 15 14 13
3 2 5 5 4 5 2 7 7 1 4 8 7 12 12 13 13 11 12 11 10 11 12 11 11 14 18 18 17 18 12 12 14 15 15 19 22 25 26 25 25 27 30 33 32 32 31 29 28 28 27 28 25 23 24 25 25 24 24 24 24 24 24 22 21 20 20 18 20 20 18 18 18 16 15 14 14 13 12 13 12 12 12 13 14 14 12
6 5 7 10 7 10 11 8 4 7 6 3 5 8 9 4 8 8 8 9 11 12 11 10 10 14 17 15 12 8 12 18 17 17 18 17 20 21 25 25 24 25 31 31 31 29 29 29 28 27 27 24 25 27 26 25 24 24 23 23 23 22 22 22 20 19 16 18 19 18 17 17 17 16 14 13 12 10 11 12 12 12 13 12 11 11 11
5 5 6 7 5 7 3 6 4 5 4 2 3 5 12 7 7 6 3 10 10 10 9 10 11 13 13 14 13 13 17 20 23 22 21 20 20 23 25 26 26 26 28 30 31 29 29 28 27 26 24 25 28 27 26 25 23 23 22 23 22 22 22 22 22 20 18 18 19 18 17 17 16 15 13 12 11 9 10 11 11 12 11 11 10 9 11
1 4 7 6 6 5 3 11 9 4 7 5 4 2 12 5 10 5 6 8 9 7 8 11 9 9 10 13 15 16 19 21 22 21 22 21 21 23 25 26 26 27 30 31 30 29 29 28 27 25 27 29 26 25 24 24 24 24 23 23 23 23 23 22 22 21 19 18 18 17 18 16 14 15 14 12 10 8 9 9 10 10 11 10 9 8 9
9 4 5 8 4 5 3 8 5 10 7 7 1 6 5 10 7 6 5 5 8 7 6 7 7 6 10 14 17 19 19 19 21 19 20 21 21 23 24 25 25 28 30 30 30 28 28 29 26 27 29 25 25 24 24 23 23 23 23 24 24 23 23 22 20 20 19 19 18 17 16 15 14 14 13 9 7 7 8 8 8 9 10 9 10 9 8
11 13 10 7 7 8 12 11 7 10 10 8 3 10 4 4 3 3 2 5 6 4 6 5 7 8 8 13 18 19 18 19 21 21 20 20 19 21 22 23 26 27 29 27 28 27 23 25 26 25 24 23 23 23 24 23 24 23 24 24 24 24 22 22 21 21 19 18 17 16 14 13 14 14 9 7 5 6 8 8 8 9 10 9 9 9 8
14 12 9 8 10 13 11 7 7 10 7 5 11 2 4 2 2 2 2 5 5 4 7 7 8 12 12 14 15 16 16 17 20 20 22 23 22 20 19 22 22 21 24 28 30 28 25 23 22 22 24 25 23 23 23 24 26 24 23 23 22 23 23 22 21 20 19 18 16 14 13 12 12 13 9 6 6 7 8 8 9 10 9 8 8 8 8
7 9 6 1 8 6 11 11 6 9 7 7 2 2 2 4 3 3 3 4 6 4 8 8 10 13 13 14 15 15 16 17 18 19 21 22 22 23 25 27 28 26 25 27 30 29 25 25 22 22 24 25 24 23 24 27 25 23 23 23 23 23 22 22 21 20 18 18 16 12 12 12 12 12 10 8 8 8 9 9 9 10 9 8 7 7 8
6 10 9 10 10 4 10 12 7 9 14 3 2 1 4 5 4 4 3 5 4 3 6 9 11 12 13 14 13 15 16 17 17 18 19 20 21 22 21 20 23 25 26 25 27 28 26 23 21 18 18 22 24 26 27 24 23 23 22 22 22 22 20 20 19 18 16 16 15 12 13 12 11 11 11 10 9 8 8 8 8 8 7 7 7 8 9
8 8 9 7 7 5 9 8 3 5 4 0 4 5 4 3 2 3 2 5 3 3 5 8 9 12 11 13 14 15 17 18 18 18 20 21 22 22 23 25 25 24 24 28 28 30 27 27 24 21 20 22 27 28 26 24 25 24 24 23 21 21 21 19 18 16 15 14 15 12 11 10 10 9 9 9 9 8 7 8 8 8 7 7 8 8 8
6 8 4 6 6 8 9 6 2 5 4 2 4 6 4 4 3 4 4 3 3 3 3 6 7 8 11 14 15 15 16 17 18 17 18 20 20 21 20 21 24 24 24 24 25 28 30 27 24 19 21 22 25 26 25 23 23 23 23 23 23 21 19 17 16 16 16 15 15 13 13 10 10 10 10 9 9 8 7 7 7 8 7 7 7 7 8
4 9 10 13 15 10 11 10 1 2 2 5 5 5 5 2 3 3 3 3 3 3 3 5 8 11 12 14 14 14 15 17 17 17 18 19 19 21 25 24 24 25 26 25 27 29 30 27 23 22 24 22 22 22 23 23 24 24 23 22 22 19 18 16 15 14 13 11 11 11 8 8 8 9 9 9 8 8 8 7 7 7 7 7 6 7 8
12 10 6 10 3 3 6 6 6 5 5 5 5 3 2 2 2 2 2 2 4 3 4 4 6 10 11 12 14 15 15 15 16 17 17 19 21 20 20 22 24 23 23 25 27 29 27 25 24 26 26 25 24 23 23 24 24 24 22 19 18 18 19 15 12 11 11 15 14 10 9 7 7 8 8 8 8 9 8 8 8 7 7 7 7 7 7
10 11 13 13 5 5 8 9 8 7 6 7 7 6 5 4 4 3 3 4 3 3 4 3 5 9 11 10 13 15 15 16 15 15 17 19 19 19 22 22 22 21 23 26 26 26 26 24 23 23 25 26 23 24 24 24 24 23 21 22 19 17 16 14 12 10 10 11 10 10 10 9 9 9 9 8 9 9 9 8 8 8 7 7 7 6 7
9 10 13 8 4 6 7 10 11 7 7 9 8 7 5 6 5 5 5 4 4 3 3 3 5 8 11 10 11 14 14 14 15 17 17 17 19 19 19 19 21 23 23 25 26 26 24 22 22 23 24 23 23 22 23 22 23 22 22 19 17 17 16 15 15 15 12 10 9 9 9 10 10 9 11 15 12 10 9 11 15 14 11 8 6 6 7
10 14 11 6 8 9 6 5 6 7 8 9 9 9 8 7 7 6 6 5 4 5 4 3 4 7 9 12 12 13 13 13 13 14 17 18 18 18 19 20 21 22 23 24 25 25 23 21 22 24 24 23 23 23 24 23 23 22 20 18 17 16 16 15 18 17 15 14 12 10 9 9 9 9 9 8 15 19 17 12 12 14 14 15 12 12 10
13 11 3 7 6 9 4 5 9 9 8 9 8 7 6 7 7 6 6 5 5 4 3 4 4 6 9 10 11 13 13 13 14 15 15 16 15 16 16 16 19 21 23 23 24 25 22 21 22 22 22 21 21 22 23 23 23 20 19 17 16 16 16 16 18 17 15 15 14 13 12 10 9 9 9 10 8 11 16 16 15 15 14 15 15 13 13
13 10 3 8 7 2 4 4 5 7 6 7 6 7 8 7 6 6 5 4 3 4 3 3 4 4 7 10 10 11 12 14 13 15 17 15 15 15 16 18 19 19 19 19 21 21 20 23 24 23 21 21 20 22 22 23 22 21 20 18 19 18 17 18 17 17 16 15 14 14 14 13 12 11 10 8 8 6 4 8 12 13 14 14 15 14 13
12 10 4 5 4 4 6 5 1 6 7 7 5 5 7 6 7 6 5 5 4 4 3 2 4 5 5 8 9 9 11 12 14 15 13 13 14 15 16 18 19 18 19 19 19 19 21 25 23 22 23 21 21 22 22 21 21 19 18 19 17 14 16 18 16 15 15 15 15 14 13 13 12 11 11 11 8 5 5 2 1 4 7 11 12 13 12
11 7 4 2 4 6 7 10 6 11 11 8 7 9 9 9 8 5 4 4 4 3 2 1 2 4 5 5 7 8 10 12 12 10 11 13 14 14 15 15 18 19 20 19 18 19 22 22 22 22 21 20 21 21 21 23 21 18 19 19 16 18 25 21 15 15 15 14 15 14 14 14 13 12 12 12 12 7 3 2 2 2 2 2 3 4 1
10 8 9 12 13 8 8 5 6 11 11 10 10 11 10 8 6 5 5 5 4 3 2 3 1 3 4 4 6 8 9 10 11 11 12 12 12 13 14 16 17 18 17 16 17 18 19 19 20 21 21 21 22 21 22 23 21 20 19 18 17 15 15 18 16 15 15 14 14 14 14 13 12 12 13 13 13 14 14 13 11 10 9 7 6 9 11
9 8 8 6 2 6 8 8 9 9 9 8 9 8 9 8 6 5 4 4 3 1 1 1 0 2 2 4 5 7 8 9 10 12 11 12 12 13 13 15 15 15 13 14 15 17 19 19 20 20 21 23 23 24 23 23 19 18 18 18 16 15 15 16 16 15 15 14 14 15 14 14 13 13 14 14 14 13 13 13 13 12 11 12 12 13 14
7 4 4 4 6 8 10 8 8 9 9 10 10 8 8 8 7 5 5 5 4 3 2 1 2 2 3 4 5 6 8 9 10 9 10 11 12 12 13 14 13 10 10 13 17 18 19 19 20 20 21 24 25 24 23 21 17 18 17 18 16 16 16 19 16 16 15 14 15 18 15 15 14 14 14 14 14 14 14 13 14 13 13 13 14 13 13
4 3 4 5 5 4 8 7 7 8 9 10 10 10 9 6 6 6 7 6 4 4 3 2 2 3 3 3 5 6 7 8 9 9 9 10 11 11 12 12 12 13 13 15 15 16 17 18 17 17 20 21 22 23 22 19 17 17 16 15 15 21 28 30 21 16 14 15 15 15 14 15 14 14 15 14 14 13 13 13 14 13 13 13 15 16 15
7 4 3 3 3 6 6 4 6 8 10 10 11 12 13 11 10 9 8 7 6 5 3 2 2 2 3 4 6 6 7 7 7 8 8 8 9 10 10 11 10 11 11 13 13 14 15 16 18 18 20 21 21 21 20 18 16 16 16 16 16 15 18 29 18 18 15 15 15 15 14 15 15 13 13 14 13 13 12 14 14 14 13 13 14 16 16
7 1 3 6 4 6 9 8 11 12 11 13 11 8 8 6 5 6 7 6 5 5 4 3 2 2 3 4 5 6 7 7 7 6 7 9 9 10 10 9 10 11 11 11 11 12 13 15 16 17 19 20 19 19 19 17 16 14 14 14 13 14 15 18 20 15 15 15 14 15 14 14 13 14 13 13 12 13 13 14 13 14 14 13 11 12 19
16 15 16 15 16 15 15 16 13 13 8 6 7 8 7 7 7 7 7 6 6 5 5 3 2 1 2 3 4 5 6 6 6 7 9 9 10 10 10 9 10 11 10 9 11 10 12 14 14 16 18 18 18 17 18 17 16 13 14 13 13 14 15 14 15 14 14 15 13 15 15 15 16 15 14 14 13 14 15 14 14 13 13 13 13 10 22
16 15 8 6 10 11 9 10 12 14 14 14 10 8 7 7 10 9 8 7 6 5 4 4 2 0 1 2 3 4 5 4 6 7 8 9 9 10 9 10 11 10 9 8 10 11 13 13 13 18 18 16 16 17 17 18 17 14 14 14 13 12 13 13 14 14 13 12 13 14 15 15 14 15 15 15 14 14 14 15 14 14 14 14 13 13 16
13 11 6 4 3 4 5 5 9 13 14 14 14 13 14 13 11 9 9 7 6 6 5 4 2 1 0 1 2 3 4 5 6 7 8 8 9 8 8 9 10 10 10 9 10 12 14 12 20 27 16 13 15 16 17 19 16 14 13 13 12 12 12 13 12 12 13 13 13 13 13 15 15 15 15 13 14 14 14 14 14 13 13 12 11 13 12
10 11 7 6 5 5 6 5 8 10 11 13 16 13 11 10 9 7 7 6 6 5 4 4 2 2 0 1 2 3 3 4 4 6 7 8 8 8 7 8 8 9 9 9 13 13 13 13 22 26 15 12 14 16 17 28 16 14 12 13 12 12 12 12 13 13 13 13 13 12 13 12 13 13 14 13 13 14 14 13 13 12 12 12 12 11 12
4 6 8 8 8 8 7 6 7 11 13 12 7 8 11 11 9 8 7 6 5 5 5 4 2 1 0 1 2 2 3 3 5 5 6 8 7 7 6 7 9 9 9 9 12 12 11 16 22 16 12 13 13 13 18 27 26 15 11 12 12 12 13 13 13 13 13 12 13 12 12 13 12 12 12 13 13 13 13 12 12 12 11 11 11 12 12
7 6 8 8 10 10 10 8 8 9 13 16 12 10 9 11 10 9 7 6 5 5 4 4 2 2 1 1 2 2 3 4 4 5 5 7 7 5 3 3 5 6 6 9 10 10 11 14 13 11 11 12 14 13 16 22 24 12 12 11 12 11 12 12 12 12 13 12 12 13 12 13 13 13 13 13 12 12 13 14 13 12 12 11 12 12 12
10 9 10 11 13 11 13 11 9 9 8 10 15 14 11 10 9 8 7 7 5 5 4 4 3 3 1 2 2 2 3 4 4 5 6 6 5 4 3 1 5 7 8 12 9 9 13 19 13 10 10 11 12 12 12 17 16 10 11 11 11 11 11 11 11 12 12 12 13 14 12 12 12 12 12 12 12 12 12 12 12 12 11 11 11 11 11
10 10 9 11 10 9 15 14 11 9 9 9 9 10 9 9 9 9 7 7 7 6 5 4 3 3 3 3 3 4 3 3 4 5 5 4 3 5 5 6 8 8 9 10 9 10 11 11 10 10 10 12 10 14 12 14 11 9 9 10 10 11 11 11 11 11 11 11 12 11 11 11 11 12 11 11 11 11 11 11 11 11 11 11 11 11 11
10 11 11 10 10 10 12 11 11 12 9 8 10 9 9 9 8 9 8 7 7 6 5 3 4 2 2 1 2 2 2 3 4 5 4 3 2 4 5 5 7 8 13 13 9 9 8 9 8 9 11 12 10 18 19 10 8 8 8 8 8 9 10 10 10 9 9 9 9 9 10 10 10 10 10 10 10 10 10 10 10 10 10 11 11 11 11
12 13 12 11 11 12 13 12 12 12 9 9 10 10 10 8 8 8 8 7 7 6 5 3 2 2 1 1 1 0 1 0 3 4 4 1 1 2 3 6 8 8 14 10 9 7 7 7 7 8 14 13 12 19 15 8 8 8 8 8 8 8 8 8 8 8 9 8 8 8 8 9 9 9 9 9 9 9 9 10 9 9 10 10 10 10 10
12 11 12 14 13 12 12 12 13 13 13 9 8 9 10 8 8 8 8 8 7 6 5 4 3 3 2 1 0 1 1 1 0 1 2 1 2 4 2 5 6 9 12 9 7 7 6 6 6 12 15 16 17 17 9 7 8 7 7 7 7 7 7 7 7 7 8 8 8 8 8 8 7 7 8 8 8 8 8 8 8 9 9 9 9 8 8
12 11 12 13 13 11 11 10 12 13 10 10 9 8 8 8 8 8 8 8 7 7 6 5 4 3 2 1 0 1 2 2 1 1 0 0 1 0 2 7 6 6 8 11 7 6 6 6 10 15 13 15 15 13 7 7 7 7 7 7 7 6 6 6 7 7 7 7 7 7 7 7 7 7 7 7 7 7 8 8 8 8 8 8 8 8 9
11 11 12 12 12 11 9 9 9 11 12 11 9 8 7 7 7 7 7 8 7 6 6 6 5 4 3 2 1 2 3 3 2 2 2 1 0 3 5 6 6 6 10 11 5 6 6 10 13 14 14 14 13 7 6 7 6 6 7 7 7 7 6 6 6 6 6 6 6 6 6 6 6 6 6 6 6 6 6 7 5 5 6 6 6 7 6
12 11 12 12 11 10 12 10 10 12 11 10 9 8 8 7 7 6 6 7 7 6 5 5 5 5 4 3 3 1 1 1 1 3 4 3 2 4 5 6 5 7 8 6 5 5 6 8 11 15 14 14 10 5 5 5 6 6 6 6 6 6 6 6 6 6 6 5 6 6 5 5 5 5 6 6 6 6 6 6 6 6 5 5 5 5 5
13 13 12 12 13 13 12 11 11 10 10 9 9 8 9 8 7 7 6 6 6 6 5 3 4 3 4 3 3 3 2 1 0 1 3 2 3 4 4 3 5 8 8 6 5 6 9 12 13 13 13 12 6 4 5 4 5 5 5 5 5 5 5 6 6 5 6 5 6 5 5 6 6 5 5 5 6 6 6 5 5 6 6 6 5 5 5
10 12 12 12 13 13 11 11 10 10 8 8 8 8 9 8 8 6 6 6 6 6 5 4 4 4 3 4 3 3 3 4 3 1 1 2 4 4 4 4 6 6 5 4 5 5 6 11 12 12 11 8 5 5 4 4 4 4 4 4 5 4 4 4 5 5 5 5 4 4 4 4 5 5 5 5 5 6 6 5 5 5 6 6 5 6 5
10 11 10 9 10 11 11 11 9 8 8 8 8 9 9 9 8 7 6 6 5 4 4 4 4 4 4 3 3 2 2 2 4 4 4 4 4 4 4 4 4 5 5 4 5 5 5 8 8 8 7 5 4 4 4 5 5 4 4 4 4 4 4 5 5 6 5 4 4 4 4 4 4 5 5 4 4 5 5 5 5 7 10 6 5 5 5
9 9 9 9 8 7 8 6 7 9 8 8 8 9 10 8 6 7 6 6 5 5 4 3 3 4 4 3 3 2 2 3 3 3 3 2 2 3 4 4 4 4 4 4 4 4 4 4 4 5 6 5 5 4 4 5 5 5 5 5 5 5 5 4 4 4 4 4 4 4 4 4 4 4 4 4 5 4 4 5 5 5 5 5 5 5 5
7 8 9 8 8 7 7 6 7 6 6 6 8 9 8 7 7 6 5 6 6 5 5 5 4 4 4 3 2 2 3 3 2 2 2 2 2 2 2 3 3 3 3 3 4 4 4 4 4 5 5 5 4 4 5 6 4 4 5 5 5 5 5 5 4 4 4 4 4 4 4 4 4 4 3 3 4 4 5 5 4 4 4 4 4 5 5
Wind_Direction
255 282 287 281 269 253 249 246 260 259 235 186 186 214 231 246 238 250 273 302 293 291 300 309 316 323 323 323 324 319 317 321 324 320 316 312 314 321 327 326 324 323 322 321 324 326 320 323 324 321 319 317 315 313 311 310 308 307 306 305 304 303 303 302 302 303 303 303 301 301 302 299 293 288 285 274 276 280 280 277 273 270 275 284 285 265 217
255 252 257 260 251 249 249 251 255 259 244 242 237 236 236 236 243 254 272 280 279 287 302 308 314 321 320 320 320 313 316 324 320 317 310 311 322 329 326 324 323 323 324 322 321 321 325 319 321 321 319 316 314 312 311 310 308 307 307 303 302 301 298 297 297 299 298 295 296 296 292 291 291 295 296 292 288 287 285 277 275 273 278 283 280 267 222
244 227 240 247 245 242 248 255 263 258 255 253 250 244 245 248 260 262 265 272 280 290 297 309 314 313 315 315 319 316 316 317 315 313 315 324 328 327 324 322 320 316 315 319 322 319 320 321 319 319 318 315 312 310 308 305 303 304 305 302 300 298 296 296 293 293 296 291 291 290 287 285 287 291 293 293 290 288 286 283 276 276 277 282 280 262 221
257 189 215 247 243 241 243 254 262 260 244 251 247 225 219 216 246 269 281 280 278 298 319 314 310 313 316 317 321 315 315 317 314 318 322 324 324 323 321 321 321 321 318 319 320 319 319 321 319 316 317 315 312 310 308 305 303 301 300 298 296 295 293 294 292 291 291 291 287 286 286 280 278 280 282 284 285 284 285 285 281 272 276 279 278 258 221
259 147 163 217 262 271 264 242 246 246 237 226 237 238 214 231 253 268 261 268 294 310 318 316 315 318 318 322 322 316 317 311 311 320 324 319 320 319 321 320 319 316 318 318 316 316 317 315 319 319 314 310 309 309 308 306 304 302 300 297 293 291 290 290 288 279 285 286 287 283 282 280 276 276 274 275 276 278 280 281 280 277 275 278 273 253 220
112 139 59 228 254 247 240 175 171 178 208 230 233 235 228 233 230 243 260 278 293 301 314 315 313 316 317 319 311 304 301 304 318 326 321 316 313 311 313 315 319 313 318 321 318 314 311 315 314 314 314 309 305 307 306 306 304 302 301 299 294 289 287 285 279 286 282 279 278 282 278 277 271 266 263 265 268 269 274 279 276 275 274 271 264 247 220
245 130 294 278 249 254 104 146 157 183 244 242 240 249 244 247 247 257 267 274 285 298 299 300 303 303 305 311 305 299 297 314 323 322 319 316 316 315 317 321 325 325 321 319 316 315 319 316 314 313 311 312 309 308 309 307 304 301 299 297 295 293 288 286 282 277 273 278 278 282 276 275 270 261 255 259 261 263 269 270 272 274 274 269 255 240 224
331 214 188 235 263 20 334 261 274 157 221 237 249 265 246 225 238 246 264 276 289 297 298 299 304 305 306 302 285 279 290 329 327 325 320 317 317 318 318 320 318 317 320 318 314 313 312 312 312 312 311 311 305 302 309 308 306 303 300 299 298 298 294 287 282 281 277 274 282 281 277 275 272 265 256 251 255 259 262 266 268 272 271 258 246 229 220
192 242 214 246 357 305 277 265 211 155 209 218 262 284 289 219 200 237 254 281 291 297 304 305 307 307 303 293 285 290 320 332 333 328 321 318 315 313 312 314 315 316 319 314 311 308 309 308 307 309 310 308 309 305 304 306 304 303 302 299 299 298 295 293 288 282 277 283 285 283 274 271 270 267 259 254 252 251 256 262 268 270 270 249 235 222 207
155 211 272 281 259 253 208 174 133 86 136 132 245 281 283 229 199 183 239 284 289 299 304 306 315 313 307 311 315 330 338 335 330 330 324 322 320 318 315 315 316 317 320 316 310 309 307 306 307 311 313 314 314 309 307 308 306 306 304 301 302 302 303 304 298 291 285 284 287 282 274 268 270 273 267 254 247 242 247 259 266 270 266 244 229 216 199
91 216 230 226 222 252 152 165 162 139 129 140 140 326 282 183 158 195 239 272 294 307 310 312 323 327 324 308 308 327 336 330 326 323 319 320 318 315 313 314 316 318 319 314 309 307 306 306 308 312 317 317 314 310 309 311 311 308 305 305 306 305 302 299 298 295 291 286 281 278 272 269 269 272 264 247 240 238 246 255 264 274 260 237 225 211 207
219 206 238 250 241 247 239 179 157 144 155 146 201 305 267 131 190 198 203 269 296 301 298 298 292 296 311 309 308 317 321 318 312 312 312 313 313 311 313 314 317 318 318 316 315 314 313 310 311 317 319 317 316 315 313 312 310 309 308 307 305 303 300 298 297 293 288 285 279 273 270 275 275 263 255 244 233 239 253 256 269 270 254 235 219 213 198
228 224 244 283 271 257 245 224 192 148 155 154 187 232 235 140 205 174 201 269 279 257 277 279 292 274 269 283 293 304 309 310 310 312 310 309 309 310 313 313 319 320 319 315 309 309 310 311 313 315 319 319 316 318 316 315 313 311 309 306 303 302 300 298 296 294 292 287 280 271 260 260 270 274 254 241 241 251 259 263 266 266 252 236 220 215 199
224 226 240 242 274 259 247 230 175 143 149 216 223 216 103 158 245 193 239 280 274 257 262 264 263 280 290 289 294 301 305 307 306 309 310 312 312 312 313 313 317 317 317 314 310 310 309 310 316 319 318 317 317 317 317 313 313 311 308 306 303 300 298 297 294 291 287 286 281 274 267 263 264 268 269 255 254 257 259 261 265 263 250 232 221 210 206
226 218 216 322 263 271 186 147 118 184 189 241 262 50 164 144 201 251 249 247 277 273 288 274 277 286 293 299 302 302 304 307 310 311 311 312 314 318 322 325 326 325 320 317 314 311 312 314 316 321 325 322 319 319 316 313 312 310 307 303 302 301 297 293 291 289 287 289 282 270 268 265 263 268 273 276 267 258 261 262 261 259 240 228 213 207 204
162 199 186 205 217 237 157 156 178 186 216 198 202 248 260 161 171 196 248 260 246 262 274 293 297 297 302 302 308 310 307 308 311 311 311 311 313 316 316 317 318 321 317 315 314 312 314 318 318 315 324 327 323 316 311 313 313 309 307 302 298 295 295 294 292 291 291 293 283 257 258 258 259 261 266 267 263 260 259 256 261 252 239 221 210 204 201
159 199 210 216 225 197 195 211 212 189 181 114 191 202 252 233 204 154 224 261 254 260 277 284 289 300 300 303 311 311 309 310 311 313 313 314 315 318 322 323 324 323 318 316 317 314 315 317 321 326 330 327 324 319 315 316 315 312 306 306 307 301 294 292 293 293 292 294 289 264 256 251 250 251 251 254 261 260 252 253 252 252 239 219 210 206 202
251 268 228 223 215 197 210 246 222 195 170 216 158 179 213 240 185 173 233 284 286 268 270 291 289 282 299 309 312 312 309 307 307 310 313 314 316 317 319 320 324 320 316 314 314 314 314 318 323 328 325 328 323 320 319 318 315 311 307 304 301 299 295 293 294 294 293 291 289 262 251 256 253 251 252 254 252 251 247 243 244 242 240 224 210 204 203
181 249 191 209 228 195 203 223 121 26 164 175 177 188 219 160 161 197 242 255 260 258 282 272 286 298 305 308 306 308 308 306 309 314 316 315 318 322 323 324 325 324 324 321 320 320 318 321 326 324 329 330 323 319 320 318 316 313 312 304 298 297 300 298 295 293 290 289 292 295 261 246 244 251 251 251 247 245 240 238 235 235 234 227 213 205 204
223 240 211 239 213 131 209 200 184 199 192 176 178 172 152 137 153 190 219 198 248 235 242 262 290 294 300 304 307 309 307 307 311 315 317 318 318 320 318 320 324 322 320 320 320 321 320 320 324 327 328 325 326 328 327 325 319 314 309 306 305 302 298 294 291 290 290 290 291 288 286 271 261 255 248 238 242 239 235 228 225 228 227 223 215 206 206
242 261 263 252 131 211 227 228 220 212 177 166 171 159 151 168 179 201 205 216 240 248 268 302 298 291 289 295 301 301 303 307 310 314 317 317 316 318 322 325 326 322 319 320 320 318 316 319 327 328 323 324 329 333 330 325 321 321 318 313 305 297 307 310 298 296 292 292 289 291 291 285 268 261 254 249 238 238 232 225 218 219 218 220 211 204 199
234 224 235 215 198 247 221 214 215 183 169 155 157 160 174 192 196 201 203 230 237 248 273 289 290 283 289 294 302 301 301 304 309 314 316 317 318 319 321 319 319 320 321 319 318 318 319 325 323 323 324 323 326 330 330 328 326 324 319 315 319 327 328 328 327 322 311 298 291 289 294 293 290 279 255 243 239 232 231 218 224 221 215 222 206 191 194
234 233 228 177 216 244 241 187 166 152 154 151 161 184 189 190 189 179 192 209 219 222 240 254 269 277 286 297 308 303 303 305 309 310 316 320 322 322 323 323 323 323 320 320 320 321 322 322 324 325 323 323 327 331 332 331 328 323 319 322 327 328 332 334 331 328 326 324 322 310 295 286 285 284 288 260 233 231 229 219 211 222 224 227 212 191 188
249 247 141 175 178 222 204 145 152 163 162 164 176 179 165 162 162 173 190 205 194 213 228 255 254 280 291 298 305 303 302 306 313 316 317 317 315 317 319 322 320 321 322 324 325 322 320 325 324 325 325 324 330 331 332 331 329 327 324 325 330 330 331 331 330 332 332 328 330 334 336 326 309 290 281 282 268 223 224 227 227 221 221 223 221 205 192
242 246 131 178 192 265 53 115 139 143 162 167 168 172 163 158 165 166 187 195 207 193 221 266 289 293 296 298 303 303 306 308 312 317 319 318 321 323 321 321 322 323 322 320 317 317 319 323 326 326 323 323 333 332 333 330 329 328 325 332 334 331 333 334 333 332 334 335 334 336 337 335 338 336 319 292 278 288 237 214 222 224 217 219 218 211 198
253 258 89 69 61 102 119 82 177 181 174 160 130 144 149 155 162 165 188 193 193 185 196 237 280 293 302 301 301 307 305 305 314 320 318 323 326 328 328 327 324 322 320 316 316 319 325 327 325 326 326 327 333 333 333 331 329 320 326 333 333 332 335 334 334 335 336 336 337 336 332 332 333 337 346 337 314 300 303 299 238 226 225 215 215 211 205
245 228 121 205 219 189 187 198 207 168 167 161 149 152 154 157 159 165 175 192 191 169 173 228 267 290 297 291 302 306 310 311 313 317 322 324 326 327 323 320 322 321 318 316 318 326 330 329 326 325 322 328 330 332 333 333 329 328 334 335 334 334 337 342 342 340 338 337 341 338 338 341 338 343 348 353 350 336 313 300 256 187 138 79 33 29 232
224 198 181 206 237 223 196 188 94 137 148 155 153 152 151 145 146 154 180 177 159 157 175 167 215 292 295 308 320 315 317 317 318 320 326 327 323 320 322 323 324 324 319 319 323 328 331 332 328 323 324 333 335 339 336 333 332 336 337 338 336 337 337 342 348 344 343 341 341 343 346 343 343 353 2 6 10 12 13 16 22 31 32 30 33 30 37
220 201 207 233 58 77 91 105 118 134 146 152 146 141 140 139 161 173 181 161 137 133 169 194 244 277 307 317 329 320 315 316 320 324 321 318 321 323 325 326 326 321 321 322 327 336 337 333 330 329 332 338 339 338 336 337 335 334 335 339 338 341 346 348 350 348 347 346 346 351 356 355 356 7 10 13 14 16 21 23 24 25 24 17 15 14 17
207 168 173 142 134 133 126 151 163 161 154 158 150 154 166 153 163 182 170 161 158 185 215 253 276 298 322 325 324 321 314 311 307 304 311 319 324 326 330 329 323 316 327 342 341 339 336 335 336 338 340 339 336 333 337 336 334 329 335 340 338 346 352 353 353 356 356 353 353 355 6 5 9 15 18 20 19 21 22 21 21 20 19 17 25 28 13
147 104 130 114 137 175 192 178 155 163 159 161 162 156 170 183 172 165 176 170 178 194 200 218 272 301 316 315 312 304 301 300 304 309 316 323 326 330 334 337 350 347 342 329 328 338 337 340 336 339 336 334 332 333 339 339 335 335 343 345 343 346 357 2 4 6 359 1 357 1 8 12 11 18 23 25 24 24 23 24 24 21 21 25 32 27 14
122 96 101 165 166 185 215 177 164 178 174 166 167 182 176 171 182 184 171 174 186 181 191 208 246 294 308 311 310 310 308 307 311 309 317 324 327 330 336 337 338 329 321 323 334 340 342 341 340 336 335 333 333 337 341 338 336 344 345 342 341 347 353 5 6 5 7 8 7 5 8 14 12 12 20 24 23 22 25 31 28 25 21 25 31 31 23
139 143 274 238 236 245 240 220 192 197 176 185 193 169 163 175 169 158 157 155 159 179 179 196 209 282 301 307 310 314 314 310 297 304 329 334 333 333 335 339 338 328 328 330 337 345 347 342 333 334 335 332 333 337 340 338 342 344 341 339 335 345 350 359 5 6 10 13 12 11 5 16 16 19 21 19 22 27 31 33 32 30 31 29 23 26 36
188 202 209 198 185 196 213 222 206 201 183 177 158 153 157 162 165 153 147 155 161 170 174 178 187 274 307 310 311 313 326 333 345 342 333 329 326 327 332 338 336 329 320 326 349 353 353 341 337 339 334 332 336 338 339 343 346 344 341 337 342 349 355 355 359 9 12 13 5 7 8 11 19 19 18 18 22 30 32 30 29 28 31 29 21 9 34
206 219 220 209 199 208 203 194 184 189 172 162 160 159 154 151 156 154 155 158 167 162 152 148 136 189 314 302 318 324 339 334 323 318 322 323 320 319 328 336 333 323 330 345 360 356 345 334 339 341 337 336 341 342 342 348 345 344 343 344 343 351 352 357 5 9 9 4 6 14 17 16 16 17 19 23 22 24 32 32 30 30 30 27 22 16 29
210 218 185 149 160 170 169 173 172 171 174 175 162 146 151 152 148 153 159 157 144 145 142 137 136 167 263 302 327 340 331 329 322 323 322 320 315 323 332 339 331 323 331 334 358 353 342 339 345 346 342 342 347 344 346 353 346 347 345 348 347 353 355 359 2 4 9 12 16 18 19 18 23 24 18 15 20 22 25 29 28 27 28 24 18 24 18
206 205 181 147 127 129 128 136 148 150 153 141 137 145 147 148 146 132 116 129 136 136 134 138 139 167 275 292 315 294 304 310 321 325 318 318 315 323 329 334 340 343 340 350 344 341 338 341 343 345 345 351 349 346 345 354 353 345 348 353 353 358 360 1 3 8 5 8 13 11 11 14 20 19 19 16 19 21 24 27 26 25 25 24 19 20 21
153 150 151 147 136 122 111 111 115 120 116 117 118 138 146 144 140 133 136 131 131 138 136 145 149 165 257 311 289 285 301 312 315 314 314 316 315 318 333 3 356 351 354 346 330 330 334 340 342 342 348 352 344 340 345 354 355 352 354 355 356 360 4 4 4 6 7 6 7 8 12 15 15 18 17 19 19 21 25 24 25 24 22 23 24 26 25
124 97 99 116 107 115 117 106 106 116 133 134 133 128 130 129 134 129 130 134 133 134 136 134 139 152 172 226 306 302 309 322 326 326 325 320 315 329 335 23 15 343 310 315 324 328 336 341 338 339 350 348 342 344 345 352 353 354 353 354 356 3 6 9 7 5 6 3 8 11 12 17 19 18 19 17 15 20 23 24 23 24 24 20 22 24 22
134 144 141 132 121 130 109 118 119 120 121 130 136 142 148 139 141 133 131 132 141 141 139 149 148 154 179 223 267 282 306 311 328 326 326 315 305 304 268 202 16 340 326 336 339 340 341 343 343 350 350 347 346 349 342 348 348 354 357 1 1 0 5 6 9 9 5 1 6 8 12 14 19 18 19 17 17 17 16 15 18 17 18 19 21 20 21
148 140 141 136 123 125 125 126 129 128 128 126 127 135 140 138 137 134 146 146 147 149 152 152 155 178 190 219 232 262 281 299 319 314 315 293 321 352 7 353 348 339 344 342 341 339 342 345 346 349 351 347 345 349 343 344 351 359 0 4 7 6 5 8 12 13 14 7 7 7 7 5 11 16 14 16 15 13 13 16 18 18 17 17 17 15 21
150 141 138 135 136 134 126 122 125 116 117 128 132 131 133 140 143 145 146 144 145 149 152 172 181 180 195 233 261 283 306 320 306 310 320 335 353 0 354 339 339 335 338 335 335 334 343 348 346 354 354 347 345 343 342 341 349 355 3 6 11 10 9 7 8 7 9 10 10 9 7 8 9 10 9 13 13 13 10 10 14 15 14 15 18 15 15
150 151 147 138 135 138 140 142 143 137 126 131 137 139 139 136 131 134 141 145 146 147 154 149 157 158 178 217 245 314 133 208 283 298 306 331 164 96 22 316 324 325 335 333 333 331 340 343 350 352 349 350 343 341 340 347 352 355 1 5 10 12 16 12 7 2 5 6 11 12 12 12 10 10 9 11 9 8 8 9 10 10 12 11 11 12 14
153 148 148 147 148 149 145 139 129 123 128 139 142 142 141 143 148 149 149 152 151 154 154 162 169 188 206 202 60 359 351 152 185 350 310 306 183 189 92 349 323 321 329 334 328 331 332 342 345 344 344 351 348 347 346 348 353 353 354 359 4 7 9 9 8 8 8 8 7 7 9 7 9 11 11 9 7 8 11 11 8 7 8 10 11 10 11
155 152 150 147 146 143 145 147 150 150 139 133 135 140 146 149 153 158 155 154 155 154 159 164 177 178 178 153 175 257 284 294 259 278 305 48 323 239 8 345 327 322 325 330 321 329 333 339 339 342 348 352 352 348 354 355 355 356 353 356 359 2 6 9 7 3 8 9 11 8 4 6 3 4 7 7 11 12 13 11 11 9 7 10 6 7 6
143 143 141 139 146 154 147 127 122 125 127 134 139 150 158 157 157 157 162 157 160 164 168 168 168 168 164 171 229 262 269 269 246 215 202 144 87 303 316 316 319 315 323 322 319 326 323 329 336 341 346 352 353 354 358 354 354 352 356 357 356 353 359 1 359 2 1 0 0 2 2 356 360 1 2 3 4 5 4 7 9 12 14 11 9 9 0
140 142 148 148 144 137 137 135 130 131 132 140 151 162 164 159 160 161 158 161 159 157 166 172 164 158 155 165 184 201 257 260 239 193 193 215 264 288 299 297 291 310 326 323 327 324 329 332 334 337 342 347 348 353 348 350 352 353 350 352 352 355 351 351 354 351 351 357 352 347 352 357 355 352 353 353 360 1 357 357 3 2 359 1 2 4 1
150 149 150 147 143 143 138 137 140 147 156 161 158 149 152 152 152 139 144 148 159 163 167 166 168 157 151 161 185 195 213 216 225 198 169 227 298 305 305 314 318 320 320 308 314 317 326 336 336 336 340 342 340 346 342 344 348 349 346 344 346 348 343 344 344 348 345 341 343 345 353 355 353 349 353 351 351 354 355 351 348 346 351 354 351 354 352
145 141 140 139 143 146 145 146 146 153 164 161 153 147 150 141 142 145 154 157 164 165 171 167 169 166 170 174 176 180 202 224 239 281 336 322 317 308 303 306 310 318 323 310 318 313 329 335 335 333 335 335 337 337 337 339 337 340 335 337 331 335 339 333 335 334 332 332 338 337 338 342 344 347 345 342 341 344 344 344 345 352 353 342 339 344 346
138 137 139 148 153 157 158 158 164 164 155 152 157 152 151 147 154 170 173 171 174 162 162 169 176 182 185 188 182 193 203 217 241 252 264 268 274 274 292 298 303 314 314 308 310 305 315 324 327 331 338 327 327 328 332 329 331 334 328 321 322 322 328 324 315 319 318 322 331 333 331 333 334 331 329 329 331 332 333 333 329 331 335 338 336 333 335
148 148 152 152 153 154 162 159 154 154 156 153 151 151 157 169 162 158 166 166 160 157 171 169 186 186 182 183 201 215 223 225 227 225 243 250 253 274 283 296 300 300 310 310 302 312 318 327 333 332 331 325 322 324 333 331 323 320 325 323 322 319 322 326 327 325 326 327 324 322 319 323 318 319 326 329 325 325 323 326 329 329 333 332 331 327 325
126 134 143 144 142 142 145 145 147 145 131 136 147 157 163 156 150 153 160 170 169 164 156 155 180 205 194 183 195 235 238 248 251 250 253 262 273 270 276 283 280 288 304 312 310 308 310 313 313 318 319 318 316 318 315 316 319 319 319 319 317 315 315 317 314 309 308 317 322 316 314 313 315 313 316 322 316 312 316 317 315 316 314 312 314 315 314